Regional Weather Roundup
Issued by NWS Mt. Holly, NJ

Home | Current Version | Previous Version | Text Only | Print | Product List | Glossary On
Versions: 1 2 3 4 5 6 7 8 9 10 11 12 13 14 15 16 17 18 19 20 21 22 23 24 25 26 27 28 29 30 31 32 33 34 35 36 37 38 39 40 41 42 43 44 45 46 47 48 49 50
000
ASUS41 KPHI 281110
RWRPHI

REGIONAL WEATHER ROUNDUP
NATIONAL WEATHER SERVICE MOUNT HOLLY NJ
600 AM EST FRI NOV 28 2014

NOTE:  "FAIR" INDICATES FEW OR NO CLOUDS BELOW 12,000 FEET WITH NO
SIGNIFICANT WEATHER AND/OR OBSTRUCTIONS TO VISIBILITY.

 * = STATION DOES NOT REPORT PRECIPITATION (E.G. RAIN, SNOW, ETC.)
        OR FOG.

NJZ015>026-281200-
SOUTHERN NEW JERSEY

CITY           SKY/WX    TMP DP  RH WIND       PRES   REMARKS
POMONA         CLEAR     30  28  92 W9        30.15R WCI  22
RIO GRANDE*    CLEAR     36  21  55 NW14G25   30.17R WCI  27
MILLVILLE      CLEAR     32  23  69 NW9       30.17R WCI  24
WRIGHTSTOWN    PTCLDY    31  26  82 W8        30.12R WCI  23
MOUNT HOLLY    CLEAR     33  24  69 W8        30.15R WCI  26
TRENTON        CLEAR     30  24  78 W7        30.13R WCI  23

$$
NJZ001>014-281200-
NORTHERN NEW JERSEY

CITY           SKY/WX    TMP DP  RH WIND       PRES   REMARKS
SUSSEX         CLOUDY    23  21  92 CALM      30.11R
ANDOVER*         N/A     26  24  92 CALM      30.11R
NEWARK         PTCLDY    29  22  75 W3        30.12R
TETERBORO      CLEAR     29  22  75 NW5       30.11R WCI  24
CALDWELL       CLOUDY    26  21  81 CALM      30.12R
SOMERVILLE     MOCLDY    25  22  88 CALM      30.11R
ALLAIRE*       FAIR      30  21  69 W9        30.11R WCI  22
TOMS RIVER*    PTCLDY    28  27  93 CALM      30.13R

$$
PAZ043-044-047-054-055-060>062-066>071-281200-
EASTERN PENNSYLVANIA

CITY           SKY/WX    TMP DP  RH WIND       PRES   REMARKS
PHILADELPHIA   PTCLDY    34  22  61 W9        30.17R WCI  27
NORTH PHILA    CLEAR     32  23  69 W8        30.16R WCI  25
BLUE BELL      CLEAR     32  27  80 CALM      30.14R
DOYLESTOWN     CLEAR     28  23  81 VRB3      30.12R
QUAKERTOWN*    CLEAR     28  23  80 CALM      30.13R
POTTSTOWN      CLEAR     27  21  78 CALM      30.16R
LANCASTER      CLEAR     28  20  71 W8        30.17R WCI  20
COATESVILLE    CLEAR     28  23  80 W12       30.15R WCI  18
READING        MOCLDY    32  22  66 W12       30.15R WCI  23
ALLENTOWN      PTCLDY    26  21  81 CALM      30.13R
MOUNT POCONO   LGT SNOW  25  21  85 NW13G20   30.04R FOG     WCI  14
HAZLETON       FLURRIES  28  23  80 NW13G21   30.10R WCI  18
WILKES BARRE   LGT SNOW  28  23  81 NW8       30.12R WCI  20

$$
DEZALL-MDZ008-012-015-019-020-281200-
DELAWARE AND EASTERN MARYLAND

CITY           SKY/WX    TMP DP  RH WIND       PRES   REMARKS
WILMINGTON     CLEAR     32  22  66 W7        30.18R WCI  26
DOVER          CLEAR     32  24  73 W6        30.17R WCI  26
GEORGETOWN     CLEAR     33  23  66 W5        30.21R WCI  29
EASTON         CLEAR     36  27  69 NW8       30.26R WCI  29
PATUXENT       PTCLDY    33  22  63 W8        30.24R WCI  26
OCEAN CITY     CLEAR     33  24  69 NW6       30.20R WCI  28
WALLOPS ISLAND CLEAR     33  23  66 NW8       30.23R WCI  26
CAMBRIDGE      CLEAR     36  25  64 NW10G16   30.22R WCI  28
SALISBURY      CLEAR     34  24  67 W6        30.21R WCI  29

$$
PAZ001-021-NYZ056-072-MDZ011-DCZ001-281200-
OTHER NEARBY LOCATIONS

CITY           SKY/WX    TMP DP  RH WIND       PRES   REMARKS
HARRISBURG     PTCLDY    31  20  63 NW9       30.19R WCI  23
STATE COLLEGE  CLEAR     27  18  69 NW9       30.19R WCI  17
WILLIAMSPORT   FLURRIES  30  21  69 NW6       30.17R WCI  24
BINGHAMTON     CLOUDY    27  20  75 NW3       30.07R
NEW YORK CITY  PTCLDY    31  21  66 VRB3      30.12R
BALTIMORE      CLEAR     31  22  69 W10       30.21R WCI  22
WASHINGTON DC  CLEAR     35  20  54 NW9       30.26R WCI  28

$$


USA.gov is the U.S. government's official web portal to all federal, state and local government web resources and services.